User: anonymous   Login
Location: Camerons Lookout
(40.9833°S, 175.9333°E)
Time: 08:41:53
(UTC+00:00)
Language:

Cosmos 990 Rocket - Orbit

View from above orbital plane
View from above orbital plane
View from above satellite
View from above satellite

Ground track
Ground track

The orbit is defined by the following mean orbital elements,

1 10677U          26075.63690197 +.00000000 +00000-0 +78560-4 0 00005
2 10677  74.0387 155.1379 0014406 168.1266 192.0232 14.41716674    08
Epoch (UTC): 16 March 2026 15:17:08
Eccentricity: 0.0014406
inclination: 74.0387°
perigee height: 743 km
apogee height: 763 km
right ascension of ascending node: 155.1379°
argument of perigee: 168.1266°
revolutions per day: 14.41716674
mean anomaly at epoch: 192.0232°

The dashed part of the orbit path shows where the satellite is in the earth's shadow,  

DLR